GFSSE_700_temp_000.txt.gz
Temp
9 8 8 8 8 7 7 7 8 8 7 7 8 7 6 6 5 6 6 6 6 6 5 5 5 5 4 4 5 5 5 5 5 5 5 5 5 5 5 5 5 5 5
9 8 8 8 7 8 7 7 7 7 7 7 7 7 6 5 6 6 6 6 6 6 5 5 4 5 5 4 4 4 4 4 5 5 5 5 5 5 5 5 5 5 5
8 8 8 8 7 7 7 7 7 7 7 7 6 6 5 6 6 6 6 6 6 6 5 4 4 4 4 4 4 3 3 3 4 4 4 4 5 5 5 5 5 5 5
7 7 7 7 7 7 7 7 6 6 6 6 5 5 5 5 6 6 6 6 6 6 5 4 4 4 4 4 3 3 3 3 2 3 4 3 4 5 5 5 5 5 5
7 7 7 7 6 6 6 6 6 6 6 5 5 5 4 5 5 5 5 5 5 5 5 4 4 4 4 3 3 2 3 3 3 3 4 2 3 4 4 5 5 5 5
7 7 6 6 6 6 6 6 6 6 5 5 5 4 4 4 4 4 4 4 5 4 4 4 4 4 3 3 3 3 2 3 3 2 3 2 3 4 4 4 4 5 5
7 7 6 6 6 5 5 5 5 5 5 4 4 4 4 4 4 4 4 4 4 4 4 4 4 4 3 3 3 3 3 2 3 2 3 2 2 3 3 3 4 4 4
6 6 6 5 4 4 4 5 5 5 5 4 4 4 4 4 4 4 4 4 4 4 4 4 4 3 3 3 3 3 3 3 3 3 3 2 2 2 3 3 3 4 4
6 5 4 4 4 4 4 4 4 5 4 4 4 4 4 4 4 4 4 4 4 5 4 4 4 4 4 4 4 3 3 3 3 3 2 2 3 2 2 3 3 3 3
5 4 4 4 4 4 4 4 5 5 5 5 4 4 4 4 4 4 4 3 3 3 4 4 4 4 4 4 4 4 4 3 3 2 2 2 2 2 2 2 2 3 3
5 4 4 4 4 4 4 4 4 4 4 4 4 4 4 3 3 3 3 3 3 3 3 3 3 3 3 4 4 4 4 3 3 3 2 1 2 2 2 2 2 2 3
5 5 5 4 3 3 4 4 4 4 4 4 4 3 3 3 3 3 3 3 3 3 3 3 3 3 3 3 3 3 3 3 3 3 2 2 2 1 1 2 2 2 3
5 4 4 3 3 4 4 4 4 4 4 3 3 3 3 3 3 3 2 2 2 2 2 2 2 3 3 3 3 3 2 3 3 3 2 2 2 2 2 2 2 3 3
4 4 3 3 3 3 4 4 4 4 4 4 3 3 3 3 3 3 3 3 2 2 2 2 2 2 2 2 2 2 2 2 2 2 2 3 3 2 2 2 2 2 2
4 3 3 3 3 3 4 4 4 4 4 3 3 3 3 2 2 2 2 2 2 2 2 2 1 1 1 1 1 1 1 1 2 2 2 2 2 2 2 2 1 1 1
4 4 3 3 3 3 4 4 3 3 3 3 3 2 2 2 2 2 2 1 1 1 1 1 1 1 0 0 0 0 0 1 1 1 1 1 1 2 2 2 1 0 1
4 4 3 3 3 3 3 3 3 3 3 2 2 2 2 2 1 1 1 1 0 1 0 0 0 0 0 -0 -1 -1 -1 -1 -0 0 0 1 1 1 1 1 1 0 0
4 3 3 3 3 3 3 2 2 2 2 2 2 2 1 1 1 0 0 0 -0 -0 -1 -1 -1 -1 -1 -1 -1 -1 -1 -1 -1 -1 -1 -0 0 0 -0 -0 -0 -0 -1
4 3 3 3 3 2 2 2 2 2 2 2 1 1 1 -0 -0 -0 -0 -1 -1 -1 -1 -1 -1 -1 -2 -2 -2 -2 -2 -2 -2 -2 -2 -2 -2 -1 -1 -1 -1 -0 -0
4 3 3 3 2 2 2 2 2 2 1 1 1 1 0 -0 -1 -1 -1 -1 -2 -2 -2 -2 -2 -2 -2 -2 -3 -3 -3 -3 -3 -3 -3 -3 -3 -3 -2 -1 -1 -1 -1
4 3 3 2 2 2 2 1 1 1 1 0 -0 -1 -1 -1 -1 -1 -1 -1 -2 -2 -3 -3 -3 -3 -3 -3 -3 -3 -3 -3 -3 -3 -3 -3 -3 -3 -3 -3 -2 -2 -2
3 3 3 2 2 1 1 1 0 -0 -0 -1 -1 -1 -1 -1 -2 -2 -1 -1 -2 -2 -3 -3 -3 -3 -3 -3 -4 -4 -3 -3 -3 -3 -4 -4 -4 -3 -3 -3 -3 -3 -2
2 2 2 1 1 0 -1 -1 -1 -1 -1 -1 -2 -2 -2 -2 -2 -2 -2 -2 -2 -3 -3 -4 -4 -5 -5 -5 -4 -4 -4 -3 -3 -3 -3 -4 -4 -3 -3 -3 -4 -4 -4
2 1 1 1 0 -0 -1 -1 -1 -1 -2 -2 -2 -2 -2 -2 -2 -2 -2 -2 -3 -4 -4 -4 -5 -5 -6 -6 -6 -6 -5 -5 -5 -5 -4 -4 -4 -4 -3 -4 -4 -4 -4
1 1 0 -0 -0 -1 -1 -1 -2 -2 -2 -2 -2 -2 -2 -2 -2 -2 -2 -2 -3 -3 -4 -4 -6 -6 -6 -7 -7 -7 -7 -6 -6 -5 -5 -5 -5 -4 -4 -5 -4 -4 -5
1 1 0 -0 -1 -1 -2 -2 -2 -2 -2 -2 -2 -2 -2 -2 -2 -2 -2 -2 -3 -3 -4 -4 -5 -6 -6 -7 -7 -7 -8 -8 -8 -7 -6 -6 -6 -5 -5 -5 -4 -5 -5

GFSSE_700_temp_003.txt.gz
Temp
8 8 7 7 7 7 7 7 6 7 7 7 6 6 6 7 7 6 6 6 5 6 5 5 5 5 4 4 4 4 3 4 4 4 4 4 4 5 5 5 5 4 5
8 8 8 8 7 7 7 6 6 6 6 6 6 6 6 7 6 6 6 6 6 5 4 4 3 4 4 4 4 4 4 4 3 3 3 3 4 4 4 5 5 5 4
8 8 7 7 7 6 6 6 6 6 6 6 6 6 6 6 6 6 6 5 4 4 4 4 4 4 4 4 4 3 4 4 4 4 3 3 4 4 4 4 5 5 4
8 7 7 7 7 6 6 6 6 6 6 6 5 6 5 5 5 5 4 4 4 4 4 4 5 5 5 4 4 4 3 3 3 3 3 3 4 4 4 4 4 4 4
7 7 7 7 7 6 6 5 5 6 5 5 5 5 5 4 5 5 5 4 4 5 5 5 5 4 5 4 4 3 3 3 3 2 3 3 3 3 3 4 4 4 4
7 7 7 6 6 6 6 6 5 5 5 4 4 4 4 4 4 4 4 4 4 4 4 4 4 4 4 4 4 3 3 3 3 2 3 3 3 3 3 3 4 3 4
6 7 6 6 5 5 5 5 4 4 4 4 4 4 4 4 4 3 3 3 4 4 4 4 4 4 4 4 4 3 3 3 3 3 3 3 2 2 2 3 3 3 3
6 5 5 4 4 4 4 4 4 4 5 5 4 4 4 5 5 4 3 3 3 3 3 4 4 4 4 4 4 4 4 3 3 3 3 3 2 3 2 1 2 3 3
5 5 4 3 4 4 4 5 5 5 5 5 4 4 4 4 4 4 4 3 3 3 4 4 3 3 4 4 4 4 4 4 3 3 3 2 2 2 2 2 2 2 2
5 4 4 4 4 4 5 5 5 5 5 4 4 4 4 4 3 3 3 3 3 3 3 3 3 3 4 4 3 3 4 4 3 3 3 3 2 2 2 1 1 1 2
5 4 3 4 3 4 5 5 5 5 4 4 4 4 4 4 3 3 3 3 3 3 3 3 3 3 3 3 3 3 3 4 3 3 3 3 2 2 2 2 1 1 1
4 3 4 4 4 4 4 4 4 4 4 4 4 4 3 3 3 3 3 3 3 3 3 2 3 3 3 3 3 3 3 3 3 3 3 3 3 3 3 2 2 2 2
4 4 4 3 3 4 4 4 4 4 4 4 3 3 3 3 3 3 3 3 3 3 2 3 3 3 3 2 2 2 2 2 2 2 2 3 2 2 2 2 2 1 2
4 4 3 3 3 3 4 4 4 4 4 4 3 3 3 3 3 3 2 2 2 2 2 2 2 2 2 2 2 2 2 2 2 2 2 2 2 2 2 2 2 2 2
4 4 4 3 3 3 4 4 4 4 4 3 3 3 3 3 3 2 2 2 2 2 2 2 2 2 2 1 1 1 1 1 1 1 1 1 1 1 1 1 2 2 2
4 3 3 3 3 3 3 3 3 3 3 2 2 2 2 2 2 2 2 2 1 1 1 1 1 1 1 1 1 1 1 1 1 0 0 0 0 0 1 1 1 1 2
3 3 3 3 3 3 3 3 2 2 2 2 2 2 2 1 1 1 0 0 0 0 0 0 0 0 0 -0 -0 -0 -0 -0 0 0 0 0 -0 -0 -0 0 0 0 0
3 3 3 3 3 3 3 2 2 2 2 1 1 1 1 0 0 0 -0 -1 -1 -1 -1 -1 -1 -1 -1 -1 -1 -1 -1 -1 -1 -1 -0 -0 -0 -0 -0 -1 -0 -0 -0
4 3 3 3 2 2 2 2 2 2 1 1 0 -0 -0 -1 -1 -1 -1 -1 -1 -1 -1 -1 -1 -1 -1 -1 -2 -2 -2 -2 -2 -2 -2 -1 -1 -1 -1 -0 -1 -1 -1
4 4 3 3 2 2 2 2 1 1 1 0 -0 -1 -1 -1 -1 -1 -1 -0 -1 -1 -1 -2 -2 -2 -2 -2 -2 -3 -3 -3 -3 -3 -3 -3 -3 -3 -3 -2 -2 -1 -1
4 3 3 2 2 2 2 1 1 0 -0 -1 -1 -1 -1 -2 -2 -2 -2 -1 -1 -1 -1 -1 -2 -3 -3 -3 -3 -3 -3 -3 -3 -3 -3 -3 -3 -3 -3 -3 -3 -3 -2
3 2 2 2 2 1 1 -0 -1 -1 -1 -1 -2 -2 -2 -2 -2 -2 -2 -2 -2 -2 -2 -2 -2 -2 -3 -4 -4 -4 -4 -3 -3 -3 -3 -4 -3 -4 -4 -4 -3 -4 -3
2 2 2 1 1 0 -0 -1 -1 -2 -2 -2 -2 -2 -2 -2 -2 -2 -2 -2 -2 -3 -3 -3 -3 -3 -3 -4 -4 -5 -5 -5 -5 -4 -4 -4 -4 -4 -4 -4 -4 -3 -3
1 1 1 0 0 -0 -1 -1 -1 -2 -2 -2 -2 -2 -2 -2 -2 -2 -2 -2 -2 -2 -2 -2 -3 -3 -4 -4 -4 -5 -6 -6 -6 -6 -5 -5 -4 -4 -4 -4 -4 -4 -4
1 0 -0 -0 -0 -1 -1 -1 -1 -2 -2 -2 -2 -2 -2 -2 -2 -2 -2 -2 -2 -2 -2 -2 -3 -4 -4 -5 -5 -5 -6 -5 -6 -6 -5 -6 -5 -5 -5 -5 -5 -5 -5
0 0 -0 -0 -1 -1 -1 -1 -2 -2 -2 -2 -3 -3 -3 -3 -3 -3 -3 -3 -3 -3 -3 -3 -3 -4 -4 -5 -5 -5 -6 -6 -6 -7 -6 -6 -6 -6 -6 -6 -5 -5 -5

GFSSE_700_temp_006.txt.gz
Temp
9 8 8 7 7 7 7 7 7 6 6 6 6 6 7 7 6 6 6 6 6 5 5 4 4 4 4 4 3 3 4 4 3 3 3 3 4 4 4 4 4 5 4
8 8 7 7 7 6 6 7 6 6 6 7 6 7 7 6 6 6 6 6 5 5 5 4 4 3 3 4 3 3 3 4 4 4 4 4 4 4 4 4 4 4 4
8 7 7 7 6 6 6 6 6 6 6 6 6 6 6 6 6 5 5 5 5 4 4 4 4 4 3 4 4 4 4 3 4 4 4 3 3 4 4 4 4 4 4
7 7 7 7 7 6 6 6 7 6 6 6 6 6 6 5 5 5 5 5 5 5 5 5 5 4 4 4 4 4 4 4 4 4 3 3 3 3 4 4 4 3 4
7 7 7 7 7 6 6 6 6 6 6 6 5 5 5 5 5 4 4 4 4 4 5 5 4 4 4 4 4 4 4 4 3 3 3 3 3 3 3 3 3 3 3
7 7 6 6 6 6 5 6 5 5 5 5 4 4 4 4 4 4 4 4 4 4 4 4 4 4 4 4 4 3 3 3 3 3 2 3 3 3 3 2 2 3 3
6 6 6 5 5 5 5 5 5 5 5 4 4 4 4 4 4 4 4 4 4 4 4 4 4 3 3 3 3 4 4 3 3 3 2 3 3 3 3 2 1 2 3
6 5 5 6 5 5 5 5 5 5 5 5 5 4 4 4 4 4 4 4 4 3 3 4 4 4 4 4 3 3 3 3 3 3 3 3 3 2 2 2 2 2 2
5 5 5 5 5 4 5 5 5 5 5 5 5 5 4 4 4 4 4 4 4 4 3 3 4 4 3 4 4 4 4 4 3 3 3 3 3 2 2 2 2 1 1
5 4 4 4 4 5 5 5 5 5 5 5 5 5 5 4 4 4 4 3 3 3 3 3 3 4 4 3 3 3 3 4 4 4 3 3 3 3 2 2 2 2 0
5 4 4 4 4 4 4 4 5 5 5 4 4 4 4 4 4 3 3 3 3 3 3 3 3 3 3 3 3 3 3 3 3 3 3 3 3 3 3 2 2 2 1
4 4 4 4 4 4 4 4 4 4 4 4 4 4 3 3 3 3 3 3 3 3 3 3 3 3 3 3 3 2 2 2 2 2 3 3 2 2 2 2 2 2 2
4 4 4 4 4 4 4 4 4 4 4 3 3 3 3 3 3 3 3 3 3 3 2 2 2 2 2 2 2 2 2 2 2 2 2 2 2 2 2 2 2 2 2
4 4 4 4 3 3 3 4 3 3 3 3 3 3 3 3 2 2 2 2 2 2 2 2 2 2 2 2 2 2 2 2 2 1 2 2 1 1 1 1 2 2 1
4 4 4 3 3 3 3 3 3 3 2 2 2 2 2 2 2 2 2 2 1 1 1 1 1 1 1 1 1 1 1 1 1 1 1 1 1 1 1 1 1 2 2
3 3 3 3 3 3 3 3 3 2 2 2 2 2 2 1 1 1 1 1 1 1 0 0 -0 -0 -0 0 0 0 0 0 1 0 0 0 1 1 0 1 1 1 1
3 3 3 3 3 3 3 3 2 2 2 1 1 1 1 1 0 0 0 0 0 0 0 0 0 0 0 -0 -0 -0 -0 -0 -0 -0 -0 -0 0 0 0 0 0 0 1
4 3 3 3 3 2 2 2 2 2 2 1 1 0 0 -0 -0 -1 -0 -0 -1 -0 -0 -0 -0 -0 -0 -0 -0 -1 -0 -1 -1 -1 -1 -1 -1 -1 -0 -0 -0 -0 -0
4 4 3 3 2 2 2 2 2 2 1 1 0 -0 -1 -1 -1 -1 -1 -0 -1 -1 -1 -0 -0 -1 -0 -1 -1 -1 -1 -1 -2 -2 -2 -2 -2 -2 -2 -1 -1 -1 -1
4 3 3 3 2 2 2 2 1 1 0 -0 -0 -1 -1 -1 -2 -2 -1 -1 -0 -1 -1 -1 -1 -1 -2 -1 -2 -2 -2 -2 -2 -2 -3 -3 -3 -2 -3 -3 -2 -2 -2
4 3 2 3 2 2 1 1 1 0 -0 -1 -1 -1 -2 -2 -2 -2 -2 -2 -2 -2 -2 -2 -2 -2 -2 -2 -2 -2 -2 -2 -2 -3 -3 -3 -3 -3 -3 -3 -4 -4 -3
4 3 3 2 2 2 1 1 0 -0 -1 -1 -2 -2 -2 -2 -2 -2 -2 -2 -2 -2 -2 -2 -2 -2 -2 -2 -2 -3 -3 -4 -4 -2 -3 -3 -3 -3 -4 -4 -4 -4 -4
3 3 2 2 2 1 1 0 -0 -1 -1 -1 -2 -2 -2 -2 -2 -2 -2 -2 -2 -2 -2 -2 -2 -2 -2 -2 -3 -3 -3 -4 -4 -4 -5 -4 -4 -3 -4 -4 -4 -4 -4
2 2 1 1 1 0 0 -0 -1 -1 -1 -1 -2 -2 -2 -2 -2 -3 -3 -3 -3 -2 -2 -2 -2 -2 -2 -2 -4 -4 -4 -4 -4 -5 -5 -5 -5 -5 -4 -4 -4 -4 -4
1 1 1 1 0 -0 -0 -1 -1 -1 -2 -2 -2 -2 -2 -3 -3 -4 -3 -3 -3 -3 -3 -2 -2 -3 -3 -3 -4 -4 -4 -6 -5 -5 -5 -5 -6 -6 -5 -4 -4 -4 -5
1 1 0 0 -1 -1 -1 -2 -2 -2 -3 -2 -2 -2 -3 -4 -4 -4 -3 -3 -3 -3 -3 -4 -4 -4 -4 -5 -6 -6 -6 -6 -7 -7 -7 -6 -6 -6 -8 -5 -5 -5 -5

GFSSE_700_temp_009.txt.gz
Temp
8 8 7 7 7 7 7 7 7 7 7 7 7 7 7 6 7 6 6 6 6 5 5 5 5 4 4 4 4 4 4 4 4 4 5 5 4 4 4 4 4 5 4
9 8 7 7 7 7 7 6 6 6 6 7 7 7 7 7 6 6 5 5 5 5 4 4 4 4 4 4 4 4 3 3 4 4 4 4 4 4 4 4 4 4 4
9 8 7 7 7 7 6 6 6 7 7 7 7 7 6 6 5 5 5 5 4 4 4 4 4 4 4 4 5 4 4 3 4 4 4 4 4 3 3 4 3 4 3
8 7 7 7 7 6 7 7 7 7 7 6 6 6 6 5 5 5 5 5 5 5 5 5 5 4 4 4 4 4 4 4 3 4 3 3 3 4 3 3 3 3 3
8 8 7 7 7 7 6 6 6 6 6 6 6 5 5 5 4 4 4 4 4 4 4 4 4 4 4 4 4 4 4 3 3 3 3 3 4 4 3 3 2 3 3
7 7 7 7 7 6 6 6 6 6 5 5 4 4 4 4 4 4 4 4 4 4 4 4 4 4 4 4 4 3 3 3 3 3 3 3 4 3 3 3 3 3 2
7 7 6 6 6 6 5 5 5 5 5 5 5 5 4 4 4 4 4 4 4 4 4 4 4 4 3 3 3 3 3 3 3 3 2 5 3 4 2 2 2 3 2
6 6 6 6 5 5 5 5 5 5 5 5 6 5 5 5 5 5 5 5 4 4 4 4 4 4 3 3 3 3 3 3 3 3 3 3 3 4 2 3 2 2 2
6 6 6 6 5 5 5 5 5 5 5 6 5 5 5 5 4 4 4 4 4 4 4 4 4 4 4 4 4 3 3 4 3 3 4 3 4 3 2 2 2 2 2
6 5 5 5 5 5 6 6 6 5 5 5 5 4 4 4 4 4 3 3 3 3 3 3 3 3 3 3 3 3 3 3 3 3 3 3 4 3 3 3 2 2 2
5 5 4 4 5 5 5 5 5 5 5 4 4 4 4 4 3 3 3 3 3 3 3 3 3 3 3 3 3 3 2 2 3 2 1 4 3 3 3 2 2 2 2
4 4 4 4 5 5 5 5 4 4 4 4 4 4 3 3 3 3 3 3 3 3 2 3 3 2 2 2 2 3 2 2 2 2 2 2 2 3 3 2 2 2 2
3 3 4 5 4 4 4 4 3 3 3 3 3 3 3 3 3 3 2 2 2 2 2 2 2 2 2 2 2 2 2 2 1 1 1 2 2 2 2 2 2 2 2
4 3 3 4 4 4 4 3 3 3 3 3 3 3 3 3 3 3 2 2 2 1 1 1 1 1 1 2 1 1 1 1 1 1 1 1 1 2 2 2 2 2 2
4 3 3 4 4 4 3 3 3 3 3 3 3 3 2 2 2 2 2 1 1 1 1 1 1 1 1 1 1 1 1 1 1 1 0 1 1 1 1 1 1 1 1
4 3 3 2 3 3 3 3 3 3 3 2 2 2 2 1 1 1 1 0 1 1 1 1 1 1 1 1 1 1 1 1 1 1 0 0 1 1 1 1 1 1 1
4 4 3 2 3 3 3 3 3 2 2 2 2 2 1 1 0 0 -0 -0 -0 0 0 0 0 0 0 0 0 1 1 1 0 0 0 -0 1 1 1 1 1 0 0
4 4 3 2 3 3 3 3 2 2 2 2 2 1 1 0 0 0 0 0 -0 -0 -0 -0 0 0 -0 -0 -0 -0 -1 -1 -1 -0 -0 -0 -1 -1 0 0 1 0 0
4 3 3 2 3 3 3 2 2 2 1 1 1 0 0 -0 -0 -1 -1 -0 -0 -1 -1 -1 -1 -1 -1 -1 -1 -1 -1 -1 -1 -1 -1 -1 -0 -1 -2 -1 -0 -1 -0
3 3 3 2 2 3 2 2 2 2 1 1 1 0 -0 -1 -1 -1 -1 -1 -1 -1 -1 -1 -1 -1 -1 -1 -1 -1 -2 -2 -2 -2 -2 -2 -2 -2 -2 -2 -2 -1 -2
4 4 2 2 3 2 2 2 1 1 1 0 0 -0 -1 -1 -1 -2 -2 -2 -2 -2 -2 -2 -2 -2 -2 -2 -2 -1 -1 -1 -1 -2 -2 -2 -3 -3 -2 -2 -3 -3 -2
4 4 3 3 2 2 1 2 1 1 0 0 -1 -1 -1 -1 -2 -2 -2 -2 -2 -2 -2 -2 -2 -2 -2 -2 -2 -2 -2 -2 -2 -3 -3 -3 -3 -3 -4 -3 -3 -3 -3
3 3 3 2 2 2 1 1 1 -0 -0 -1 -1 -2 -2 -2 -2 -2 -2 -2 -2 -3 -3 -3 -3 -3 -2 -2 -2 -3 -4 -3 -4 -4 -4 -4 -4 -4 -4 -4 -4 -3 -3
3 2 2 2 2 1 1 1 0 -0 -1 -1 -2 -2 -2 -3 -2 -2 -2 -2 -3 -3 -3 -3 -3 -3 -3 -3 -3 -4 -4 -5 -4 -4 -4 -4 -4 -4 -5 -5 -6 -5 -3
2 2 1 1 1 1 1 0 -1 -1 -1 -2 -2 -2 -2 -3 -3 -4 -4 -4 -4 -4 -4 -4 -4 -3 -4 -4 -4 -4 -5 -5 -7 -6 -5 -4 -5 -4 -5 -5 -5 -6 -6
2 1 1 1 0 -0 -1 -1 -1 -2 -2 -2 -2 -2 -2 -3 -4 -5 -5 -5 -5 -5 -4 -4 -4 -5 -5 -5 -6 -6 -6 -7 -7 -8 -8 -7 -6 -6 -5 -6 -6 -7 -7

GFSSE_700_temp_012.txt.gz
Temp
9 8 7 7 7 7 7 7 7 7 7 7 7 7 7 7 7 7 6 6 5 5 5 4 4 5 5 5 5 4 3 4 4 4 5 5 5 5 5 5 5 4 4
9 8 7 7 7 7 7 7 7 7 7 7 7 7 7 7 6 6 6 5 5 5 5 5 5 5 5 5 6 5 5 4 5 5 5 4 4 5 4 5 4 4 4
8 8 7 7 7 7 7 7 7 7 7 7 7 7 6 6 5 5 5 5 5 5 5 5 5 5 5 5 5 5 5 5 5 5 4 4 4 4 4 4 4 4 4
9 7 7 7 7 7 7 7 7 7 7 7 7 6 6 5 5 5 5 5 5 4 4 4 4 5 5 5 5 5 5 5 5 5 4 3 3 3 3 3 4 4 4
9 8 7 7 7 7 7 7 7 7 6 6 6 5 5 5 4 4 4 5 5 4 4 4 4 4 4 5 5 5 5 5 5 4 3 2 2 4 3 4 3 3 4
8 7 7 7 7 7 7 7 6 6 6 6 5 5 5 4 5 5 5 5 5 4 4 4 4 4 4 4 4 4 5 5 5 4 3 2 2 3 2 1 2 3 2
8 7 7 7 7 7 6 6 6 6 6 6 5 5 5 5 5 5 5 5 4 4 4 4 4 4 4 4 4 4 4 4 4 4 3 2 3 2 2 2 2 2 2
7 7 7 7 6 6 6 6 6 6 6 5 5 6 5 5 5 5 5 4 4 4 4 4 4 4 4 4 4 4 4 4 4 3 3 4 5 2 3 2 2 2 2
7 7 6 6 6 6 6 6 6 6 5 5 5 5 5 5 4 4 4 4 4 4 3 3 3 3 4 4 4 4 4 4 4 4 3 3 4 4 4 2 2 2 2
6 6 6 6 6 6 6 5 5 5 5 5 5 5 4 4 4 4 3 3 3 3 3 3 3 3 3 3 3 3 3 3 4 3 3 3 4 4 4 3 3 3 3
6 6 6 5 5 5 5 5 5 5 5 5 4 4 4 4 4 5 4 4 3 3 3 3 3 3 3 3 3 3 3 3 3 2 2 2 3 3 3 3 3 3 3
5 5 5 5 5 5 5 5 5 5 5 4 4 4 4 3 4 3 3 3 3 3 3 3 3 3 3 3 3 2 3 3 2 2 2 2 2 2 2 3 3 3 3
4 3 3 4 4 4 4 4 4 4 3 4 4 3 3 3 3 3 3 3 3 3 3 2 2 2 2 2 1 2 2 2 2 2 2 1 2 1 2 2 2 2 3
4 4 4 4 4 4 4 4 4 4 3 3 3 3 3 3 3 3 2 2 2 2 2 2 1 1 1 1 1 1 1 1 1 1 1 1 1 1 1 1 1 2 2
4 4 3 4 4 4 4 4 4 3 3 3 3 3 3 2 2 2 2 2 2 2 1 1 1 1 1 1 1 1 1 1 1 1 0 1 1 1 1 1 1 1 1
4 4 4 4 4 4 4 4 4 4 3 3 3 3 2 2 2 2 1 1 1 1 1 1 1 1 2 2 2 1 2 2 1 1 1 0 0 1 1 1 1 1 1
4 4 3 3 5 4 4 4 3 4 3 2 2 2 2 1 1 1 1 1 1 1 1 1 1 1 1 1 1 1 1 1 2 2 1 0 0 0 0 0 1 0 1
5 4 2 4 4 4 4 3 3 3 2 2 1 1 1 1 1 0 0 0 -0 0 0 0 0 0 0 0 0 0 -0 0 0 1 1 2 1 -0 -0 0 0 -0 0
5 4 3 3 4 3 4 3 3 2 2 1 1 0 1 0 0 -0 -1 -1 -1 -1 -1 -1 -1 -0 -0 -0 -0 -1 -1 -1 -1 -1 -1 -0 1 -0 -2 -1 -1 -1 -1
4 4 3 3 3 2 2 3 1 1 1 1 1 0 0 0 -0 -0 -1 -1 -2 -2 -2 -2 -2 -1 -1 -1 -1 -1 -1 -1 -1 -2 -2 -1 -1 -1 -1 -2 -3 -2 -2
4 4 3 3 3 2 2 2 2 2 1 0 0 -1 -1 -0 -0 -1 -1 -1 -2 -1 -2 -2 -2 -2 -2 -2 -2 -2 -2 -2 -1 -1 -1 -2 -2 -3 -3 -2 -1 -3 -2
5 4 3 3 3 3 2 2 2 1 1 -0 -1 -1 -1 -2 -2 -2 -2 -2 -2 -2 -2 -2 -3 -3 -3 -3 -3 -3 -3 -2 -2 -2 -3 -3 -4 -4 -3 -4 -4 -3 -3
4 3 3 3 2 2 2 1 1 1 0 -1 -2 -2 -2 -2 -3 -2 -2 -3 -2 -3 -3 -3 -3 -4 -3 -3 -4 -4 -3 -3 -3 -3 -2 -3 -4 -4 -3 -4 -4 -5 -4
3 3 2 2 2 2 1 1 0 -0 -1 -1 -1 -2 -2 -2 -2 -3 -4 -4 -4 -4 -5 -5 -5 -5 -5 -4 -4 -4 -4 -5 -4 -4 -3 -3 -4 -5 -5 -4 -4 -4 -5
3 2 2 1 1 1 1 0 0 -1 -1 -1 -2 -2 -2 -1 -3 -4 -4 -4 -4 -5 -5 -5 -5 -5 -5 -5 -5 -5 -5 -7 -7 -7 -5 -5 -5 -5 -5 -5 -4 -5 -5
2 2 1 1 0 -1 -1 -1 -1 -1 -1 -1 -1 -1 -2 -3 -4 -4 -5 -5 -5 -5 -5 -5 -5 -5 -6 -6 -7 -7 -8 -8 -8 -8 -9 -8 -8 -7 -7 -6 -6 -5 -5